Powrót do katalogu

COSMOS 839 DEB

AktywnyUNKNOWN
NORAD 10452·DEBRIS·🇷🇺 Russia

Wystrzelony Jul 8, 1976 z Plesetsk Cosmodrome

Loading…

Następne Przeloty (najbliższe 24 godziny)

TLE

ŚwieżeSource: Space-Track

Epoka: Sep 14, 2026, 01:11 UTC

1 10452U 76067AD  26257.04969185  .00000137  00000-0  12592-2 0  9994
2 10452  65.8452 123.2842 0603118 278.3074 238.3171 12.06077983210085

Śledź COSMOS 839 DEB w czasie rzeczywistym z AllMySat

Download on the App Store